Wind_Speed
18 18 18 19 19 20 20 19 18 17 17 17 17 17 16 17 16 16 16 16 16 17 17 17 17 16 16 16 15 14 13 13 12 13 12 12 11 11 11 11 11 10 9 8 8 8 7 7 7
19 19 20 20 21 21 21 19 19 19 19 19 19 19 19 18 18 18 18 18 18 18 18 18 17 17 17 17 16 16 15 15 14 14 14 13 13 12 12 12 12 12 11 10 9 9 8 8 8
20 21 22 22 23 23 22 21 21 20 20 20 20 20 20 20 19 19 20 20 20 20 20 19 19 19 18 18 18 17 17 17 17 16 16 16 15 14 14 13 13 13 13 12 11 10 10 9 9
22 22 23 24 24 23 23 23 22 22 21 21 21 21 21 21 21 21 21 22 21 21 21 21 21 21 20 20 19 19 19 18 18 18 18 18 17 17 16 15 15 15 14 14 13 13 12 11 11
23 23 24 25 25 24 24 25 24 23 23 23 23 23 23 23 23 23 23 24 23 23 23 23 23 22 22 22 22 21 21 21 20 20 20 20 19 19 19 18 17 16 16 16 15 14 14 13 12
24 25 25 26 26 26 26 26 25 25 25 25 25 25 25 25 25 25 25 25 25 25 25 25 25 24 24 23 23 23 23 22 22 22 22 22 21 21 21 20 20 19 18 18 17 17 16 15 15
24 25 26 26 27 27 27 28 27 26 26 26 27 27 27 26 26 26 26 26 27 27 27 27 27 26 25 25 25 25 25 24 24 24 24 24 24 23 23 23 22 22 21 21 20 19 19 18 17
25 26 27 27 28 28 28 29 28 28 27 27 28 28 28 28 28 28 28 28 28 28 28 28 28 27 27 27 27 27 26 26 26 26 26 26 26 25 25 25 25 24 24 23 23 21 21 20 19
25 27 28 28 29 29 30 30 30 30 30 29 30 30 30 30 30 30 30 30 30 30 30 30 30 30 29 29 29 29 28 28 28 28 28 28 28 28 27 27 27 26 26 26 25 25 23 23 22
25 27 28 28 29 30 31 32 32 32 32 31 31 31 31 31 31 31 31 31 31 31 31 32 32 32 31 31 31 31 31 30 30 30 30 30 30 29 29 29 29 28 28 28 28 28 27 25 25
26 27 28 29 30 31 31 32 33 33 33 32 32 33 33 33 33 33 33 33 33 33 33 33 33 33 33 33 33 33 33 33 33 33 32 32 32 31 31 31 31 31 30 30 30 30 29 28 27
27 27 29 30 31 32 32 33 34 35 34 34 33 34 34 34 35 35 35 35 34 34 34 34 34 35 35 34 35 35 35 35 35 34 35 34 34 33 33 33 33 33 32 32 33 33 32 31 30
27 28 29 31 32 33 33 34 34 35 35 35 34 34 35 35 36 37 36 36 36 36 36 36 36 36 36 36 36 36 36 36 36 37 37 37 36 35 34 35 35 34 34 34 34 35 34 34 33
28 29 30 32 33 34 35 35 35 35 36 36 35 35 36 36 37 37 37 37 37 38 38 38 38 37 38 38 38 38 38 38 38 38 39 39 38 38 37 37 37 37 36 36 36 36 36 36 36
29 30 31 32 33 35 36 37 36 36 37 37 36 36 37 37 37 38 38 38 39 39 39 39 40 39 39 40 40 40 40 40 40 40 41 41 41 40 40 40 40 39 39 39 38 38 38 38 38
29 30 30 31 33 35 36 36 35 36 37 38 37 37 37 38 38 38 39 39 39 40 40 40 41 40 41 41 41 42 42 43 43 43 43 43 43 44 43 42 42 42 42 41 41 41 41 41 40
28 29 29 31 32 34 36 35 35 36 37 38 38 37 38 38 39 39 39 39 40 41 41 41 42 42 42 43 43 43 44 45 45 46 46 46 46 46 46 45 44 44 44 44 44 44 44 44 43
28 29 30 31 32 33 34 35 35 35 37 38 38 37 38 38 39 39 39 39 40 41 42 42 43 44 44 45 46 46 46 46 46 47 48 49 49 48 48 48 47 47 47 47 46 46 46 46 46
29 29 30 31 32 32 33 34 34 34 36 37 37 37 37 38 38 39 39 40 41 41 42 43 44 45 46 46 46 47 47 47 48 48 49 50 50 50 50 49 49 49 49 49 49 49 48 48 48
29 29 29 30 31 31 31 32 32 33 34 36 36 36 37 37 38 39 39 40 41 41 42 43 45 46 47 47 47 47 48 49 50 50 49 50 52 52 52 52 50 50 50 50 51 51 51 50 50
27 28 28 29 29 29 31 31 31 32 33 35 35 36 37 38 38 39 40 40 40 41 42 43 45 46 47 47 48 48 48 49 50 51 51 51 52 53 54 54 54 53 52 52 53 53 53 52 52
27 27 27 27 27 27 28 30 29 29 31 33 34 35 36 37 38 39 40 40 41 41 42 43 45 46 47 47 48 48 49 49 50 51 52 52 52 53 54 54 54 54 54 53 53 53 54 54 53
27 27 26 26 26 27 27 29 28 28 30 32 33 33 35 36 37 38 39 41 41 41 42 43 44 45 46 47 48 48 49 50 51 51 52 52 52 53 53 53 54 54 55 55 54 54 54 54 54
28 27 27 26 26 27 27 28 29 28 30 31 32 32 34 36 37 38 39 40 41 41 42 43 43 44 45 46 47 47 48 49 50 51 51 52 52 53 53 54 54 54 54 54 53 53 54 54 55
27 26 27 27 27 28 27 29 29 29 30 31 32 32 34 36 37 37 37 39 40 40 42 43 43 44 45 46 47 47 48 49 50 50 51 51 53 53 52 53 54 53 53 53 53 53 54 54 54
26 26 27 28 29 29 28 29 28 28 30 31 31 32 33 34 35 35 36 38 39 40 41 42 42 43 44 46 46 47 48 49 50 51 51 52 52 53 53 52 53 53 53 54 53 54 54 55 54
27 26 27 28 29 29 28 27 28 28 30 31 32 33 34 34 34 34 35 36 38 39 40 42 42 43 44 45 46 47 48 50 50 50 51 52 52 52 53 52 52 53 54 54 54 55 54 55 56
27 26 27 27 28 29 29 29 28 28 29 31 32 33 34 34 35 35 36 37 37 38 39 40 42 43 45 45 46 47 48 49 50 51 50 51 50 51 53 54 53 53 54 54 54 54 55 54 56
26 26 26 27 28 29 30 29 29 28 29 30 31 32 33 33 34 34 35 36 37 38 39 39 40 42 44 45 46 46 47 49 50 51 50 50 50 50 51 53 54 53 52 52 52 53 52 53 53
28 27 28 28 29 30 31 30 28 28 29 29 30 31 32 33 34 33 33 35 37 38 40 40 41 41 43 44 45 46 46 47 48 49 50 49 49 49 49 51 52 52 52 52 51 52 52 52 53
Wind_Direction
249 248 248 248 248 248 249 249 248 247 247 248 249 249 248 247 245 245 244 240 238 237 235 235 234 232 232 232 232 231 232 230 230 229 226 223 222 220 219 217 214 213 214 214 216 215 216 217 214
250 250 250 250 249 249 250 250 250 249 249 248 248 248 247 246 245 245 244 242 240 239 238 237 236 234 234 233 233 233 233 233 232 232 231 230 228 228 225 223 222 221 221 222 224 223 222 222 220
252 252 251 251 250 251 252 251 250 249 249 249 248 248 247 247 246 246 245 243 241 241 239 238 236 235 235 235 235 235 236 237 235 235 235 234 233 234 233 230 228 227 227 227 229 227 227 228 227
255 254 252 252 252 251 252 251 250 250 249 249 250 249 249 248 248 247 246 244 242 241 240 239 238 238 237 237 238 239 239 240 239 236 236 237 237 236 236 235 233 233 233 232 233 233 233 232 230
256 255 253 252 253 252 251 251 250 250 250 250 251 251 251 250 248 248 247 245 244 243 242 240 239 240 239 240 241 241 242 244 242 241 239 238 239 239 239 237 237 236 236 236 235 235 235 235 233
258 257 255 253 252 251 251 251 250 249 250 251 252 252 252 251 249 247 247 246 245 243 242 242 241 241 241 241 242 242 244 246 246 246 244 242 240 240 240 240 239 239 238 239 237 237 237 236 236
260 258 257 255 253 252 251 251 251 250 250 250 252 253 253 252 250 248 246 245 244 243 242 242 242 242 243 243 243 244 245 247 248 248 246 244 242 242 241 241 241 241 240 241 240 239 239 238 236
262 261 259 257 254 252 251 251 251 250 250 250 251 252 252 252 250 248 247 246 245 243 243 243 243 243 244 244 244 245 246 247 248 248 247 245 244 244 244 243 243 243 242 242 242 241 241 240 239
264 263 261 259 256 254 252 252 252 252 251 251 252 253 253 252 251 249 248 247 246 245 245 244 244 244 246 246 246 246 247 248 248 248 248 247 246 245 244 244 243 243 243 243 243 243 243 242 241
267 265 263 261 259 256 254 253 252 252 252 252 253 253 253 251 250 250 248 248 247 247 247 247 246 246 247 248 248 248 248 248 248 248 248 248 247 246 245 245 245 244 243 244 244 244 244 243 242
270 266 264 262 260 258 256 255 253 253 252 252 252 252 252 250 250 249 248 248 248 248 248 248 248 248 249 250 249 249 249 249 249 249 249 248 247 246 245 246 246 245 245 244 244 244 245 245 243
271 268 265 262 261 260 258 256 255 253 253 252 252 253 252 250 249 248 248 248 248 248 248 249 249 250 250 251 250 250 251 250 249 248 249 249 248 247 247 246 246 246 246 247 246 245 245 245 245
272 269 267 264 263 261 259 257 256 255 254 253 252 252 251 250 249 248 248 248 248 249 249 250 251 252 252 252 251 251 251 251 250 249 248 249 248 247 247 247 246 247 247 247 248 246 245 245 245
276 273 270 266 264 262 261 258 257 255 254 253 252 252 251 249 248 248 248 248 249 250 251 252 253 254 255 255 254 253 252 252 251 250 249 249 248 248 248 248 248 247 248 248 248 248 247 246 246
280 277 272 268 265 264 263 260 257 255 254 252 251 251 250 250 248 248 248 249 250 251 252 253 254 255 256 256 255 254 253 252 252 251 250 250 249 249 249 249 249 249 249 248 248 248 248 248 247
282 278 274 270 268 266 264 262 258 256 253 252 252 251 251 251 250 249 249 250 251 252 252 253 254 255 256 257 256 256 255 254 253 253 252 251 250 250 250 249 249 249 248 248 248 249 249 248 248
285 279 276 274 271 269 266 264 259 256 254 253 252 251 251 251 250 250 251 252 252 252 252 253 255 255 256 256 257 257 256 256 254 254 253 252 251 252 251 251 250 250 250 249 249 249 249 248 248
289 283 279 278 276 273 270 266 260 256 255 254 253 252 251 250 251 251 252 253 253 254 254 254 255 255 255 256 257 258 258 257 256 255 254 253 253 252 252 252 252 251 251 250 250 250 250 249 249
290 287 283 281 279 276 272 266 261 257 255 253 252 251 250 250 251 251 253 254 254 255 255 255 256 256 256 256 257 257 258 257 257 256 254 254 254 253 254 254 253 253 252 251 250 250 250 250 250
292 289 286 284 281 277 272 269 263 258 255 253 252 250 250 251 251 252 254 255 255 256 256 257 256 256 257 257 257 257 257 257 257 257 257 256 255 254 255 254 254 254 253 252 251 250 250 249 249
293 291 289 288 283 279 276 271 266 258 256 254 252 251 251 252 253 254 255 255 256 257 258 258 257 257 257 257 257 258 258 258 258 257 257 257 256 255 255 255 254 253 254 253 251 250 249 249 249
295 294 292 290 286 282 279 276 267 260 257 256 255 254 253 254 255 257 257 257 258 258 259 259 259 258 258 258 258 258 258 259 260 259 258 257 257 255 255 255 255 254 254 253 252 250 249 248 248
297 294 292 290 288 283 279 277 271 264 260 258 257 257 256 257 258 258 259 259 259 259 259 259 259 259 259 259 259 259 259 260 260 259 259 258 257 255 255 255 255 254 253 252 251 251 249 248 247
299 294 293 291 290 285 280 278 275 267 263 260 259 258 258 260 262 262 261 261 261 261 260 259 260 260 261 261 261 261 261 261 260 260 259 258 257 256 255 255 254 253 252 251 250 249 249 247 246
301 297 295 293 292 288 282 279 277 272 267 263 261 261 263 264 263 264 264 263 263 262 261 261 261 262 262 263 263 263 262 262 261 260 259 258 257 255 254 254 253 252 251 250 249 248 248 248 247
302 300 295 293 293 292 286 280 276 275 272 267 264 264 267 266 265 266 266 266 265 264 263 263 263 264 264 264 264 265 264 263 262 261 260 259 258 256 254 253 253 252 251 250 249 247 247 246 246
302 300 296 293 293 293 288 285 281 278 274 270 268 269 269 268 268 268 267 268 267 266 266 265 266 266 266 266 266 266 264 263 262 262 261 260 258 257 255 253 252 252 251 250 249 247 247 247 246
303 301 298 294 293 292 292 291 287 280 276 273 272 273 272 270 268 269 269 269 269 269 268 268 267 269 268 268 268 267 265 263 262 262 262 260 259 258 256 254 253 253 252 250 249 247 247 247 247
305 301 298 294 292 291 295 295 290 283 279 275 275 275 274 272 270 270 270 271 271 270 271 271 271 270 269 269 269 268 267 265 263 262 262 261 260 258 256 255 253 252 251 250 249 248 247 246 247
303 302 299 296 294 292 295 297 290 285 281 279 279 278 276 274 274 275 274 273 274 273 273 272 272 272 270 271 270 270 268 267 265 263 262 261 260 259 258 255 253 252 251 250 250 249 249 248 247
Height
5822 5823 5824 5825 5826 5826 5827 5828 5829 5830 5830 5831 5831 5832 5833 5834 5836 5838 5837 5836 5837 5838 5839 5839 5840 5841 5842 5843 5844 5845 5845 5846 5847 5847 5848 5849 5850 5850 5850 5851 5852 5852 5853 5853 5853 5854 5855 5855 5855
5818 5819 5820 5821 5821 5822 5823 5824 5825 5826 5827 5827 5827 5828 5829 5830 5831 5832 5832 5833 5833 5834 5835 5836 5837 5838 5839 5840 5841 5842 5843 5843 5844 5845 5845 5846 5847 5848 5848 5849 5850 5850 5851 5851 5852 5853 5853 5854 5854
5814 5814 5815 5815 5816 5817 5819 5820 5821 5821 5822 5822 5823 5824 5825 5826 5827 5827 5828 5828 5829 5830 5831 5832 5833 5835 5836 5837 5838 5839 5840 5840 5841 5842 5843 5844 5844 5845 5846 5847 5847 5848 5849 5849 5850 5851 5851 5852 5852
5809 5809 5810 5810 5810 5813 5814 5814 5815 5816 5817 5818 5818 5819 5820 5821 5822 5823 5823 5824 5825 5826 5827 5828 5829 5831 5832 5833 5834 5835 5836 5837 5838 5839 5839 5840 5841 5842 5843 5844 5845 5846 5846 5847 5848 5849 5849 5850 5850
5803 5803 5803 5804 5805 5808 5808 5808 5809 5811 5812 5813 5813 5814 5815 5816 5816 5817 5818 5818 5820 5821 5822 5824 5825 5826 5827 5828 5830 5831 5832 5833 5834 5834 5835 5836 5837 5839 5840 5840 5841 5843 5843 5844 5845 5846 5847 5847 5848
5797 5797 5797 5797 5799 5801 5801 5802 5803 5805 5806 5807 5807 5808 5809 5810 5811 5811 5812 5813 5814 5815 5817 5819 5820 5821 5823 5824 5825 5826 5827 5828 5829 5830 5831 5832 5833 5834 5835 5836 5838 5839 5840 5841 5841 5842 5843 5844 5845
5790 5790 5790 5791 5792 5794 5794 5794 5796 5798 5799 5800 5801 5802 5802 5803 5804 5805 5806 5807 5808 5810 5811 5813 5815 5816 5817 5818 5820 5821 5822 5823 5824 5825 5825 5826 5828 5829 5830 5832 5833 5835 5836 5837 5838 5839 5840 5841 5842
5782 5783 5782 5783 5784 5786 5786 5787 5789 5790 5792 5793 5794 5795 5796 5797 5798 5799 5800 5801 5802 5804 5805 5807 5809 5810 5811 5812 5814 5815 5816 5817 5818 5819 5820 5821 5822 5823 5825 5826 5828 5829 5831 5832 5833 5834 5835 5836 5838
5775 5776 5775 5775 5776 5777 5778 5779 5781 5782 5784 5785 5786 5787 5789 5789 5791 5792 5793 5795 5796 5797 5799 5800 5802 5803 5805 5806 5807 5808 5810 5811 5812 5813 5814 5815 5816 5817 5819 5820 5822 5824 5825 5827 5828 5829 5830 5832 5833
5767 5767 5767 5767 5767 5768 5769 5770 5772 5774 5775 5777 5778 5779 5780 5781 5783 5784 5786 5788 5789 5791 5792 5793 5795 5796 5798 5799 5800 5801 5803 5804 5805 5806 5807 5808 5809 5811 5813 5814 5816 5817 5819 5821 5822 5823 5825 5827 5828
5759 5759 5759 5758 5758 5759 5760 5761 5763 5764 5766 5768 5769 5770 5771 5773 5774 5776 5778 5780 5782 5783 5784 5786 5787 5789 5790 5791 5793 5794 5795 5796 5797 5798 5799 5801 5802 5804 5806 5808 5809 5811 5812 5814 5816 5817 5819 5821 5822
5751 5750 5750 5750 5749 5750 5751 5752 5753 5754 5756 5758 5759 5760 5762 5763 5765 5767 5769 5771 5773 5774 5776 5778 5779 5781 5782 5783 5784 5785 5786 5788 5789 5790 5792 5793 5795 5797 5798 5800 5802 5804 5805 5807 5809 5810 5812 5814 5816
5743 5742 5741 5741 5740 5740 5741 5741 5743 5744 5746 5747 5749 5750 5752 5753 5755 5758 5760 5762 5764 5766 5767 5769 5770 5771 5773 5774 5775 5777 5778 5779 5780 5781 5783 5785 5787 5789 5790 5792 5794 5796 5798 5799 5801 5803 5805 5807 5809
5734 5733 5732 5731 5731 5730 5731 5731 5732 5734 5735 5737 5738 5740 5742 5743 5745 5748 5750 5752 5754 5756 5758 5759 5761 5762 5763 5765 5766 5767 5768 5769 5770 5772 5774 5775 5778 5780 5782 5784 5785 5787 5789 5791 5793 5795 5797 5799 5801
5726 5724 5723 5722 5721 5721 5720 5721 5722 5723 5724 5726 5728 5730 5732 5733 5735 5737 5740 5742 5744 5746 5747 5749 5750 5752 5753 5754 5755 5756 5758 5759 5760 5762 5764 5766 5768 5770 5772 5774 5776 5778 5780 5782 5784 5786 5788 5790 5792
5717 5715 5714 5713 5711 5710 5711 5711 5712 5712 5714 5716 5718 5719 5721 5723 5725 5727 5729 5731 5733 5735 5736 5738 5739 5741 5742 5743 5744 5745 5747 5748 5749 5751 5753 5755 5757 5759 5762 5764 5766 5768 5770 5772 5774 5776 5779 5781 5783
5709 5707 5705 5704 5702 5700 5700 5701 5702 5701 5703 5705 5707 5709 5711 5712 5714 5716 5718 5719 5722 5723 5725 5726 5728 5729 5730 5732 5732 5734 5735 5736 5738 5739 5741 5743 5745 5748 5750 5753 5755 5757 5759 5761 5763 5766 5768 5770 5772
5701 5698 5696 5694 5692 5691 5690 5690 5690 5691 5692 5694 5696 5698 5699 5701 5703 5705 5706 5708 5710 5712 5713 5715 5716 5717 5718 5720 5721 5722 5723 5725 5726 5727 5729 5731 5733 5735 5738 5740 5742 5745 5747 5750 5752 5754 5756 5759 5761
5692 5689 5687 5685 5683 5681 5680 5679 5679 5680 5681 5682 5684 5686 5688 5690 5693 5694 5696 5697 5698 5700 5701 5702 5703 5704 5706 5707 5709 5710 5711 5712 5713 5714 5716 5717 5719 5722 5724 5727 5729 5731 5734 5737 5739 5741 5744 5746 5749
5684 5681 5679 5677 5674 5672 5670 5669 5669 5669 5670 5672 5673 5675 5678 5680 5681 5683 5684 5686 5687 5688 5689 5690 5691 5692 5693 5695 5696 5697 5698 5699 5700 5701 5702 5703 5705 5707 5709 5712 5715 5717 5720 5722 5725 5727 5730 5733 5735
5677 5674 5671 5668 5666 5663 5661 5660 5660 5660 5660 5662 5663 5665 5667 5669 5671 5672 5673 5674 5675 5676 5677 5678 5679 5680 5681 5682 5683 5684 5685 5685 5686 5687 5688 5689 5691 5692 5694 5697 5699 5702 5705 5708 5710 5713 5716 5719 5721
5670 5667 5663 5660 5658 5655 5654 5651 5652 5651 5651 5652 5654 5656 5657 5658 5660 5661 5662 5663 5664 5665 5665 5666 5667 5667 5668 5669 5670 5670 5671 5672 5673 5673 5674 5675 5676 5677 5679 5681 5683 5686 5689 5692 5695 5697 5700 5704 5707
5662 5659 5656 5653 5650 5648 5646 5643 5644 5643 5643 5644 5645 5646 5647 5648 5649 5649 5650 5651 5652 5653 5653 5654 5654 5655 5655 5656 5656 5657 5657 5658 5658 5658 5659 5660 5661 5662 5663 5665 5668 5670 5673 5676 5679 5682 5684 5688 5692
5655 5653 5649 5646 5643 5640 5638 5636 5635 5634 5634 5635 5636 5637 5637 5638 5638 5638 5638 5639 5640 5640 5641 5641 5642 5642 5642 5643 5643 5643 5643 5643 5644 5644 5644 5645 5646 5647 5648 5650 5652 5655 5657 5660 5663 5666 5669 5673 5676
5649 5646 5642 5638 5635 5632 5631 5628 5627 5626 5626 5627 5627 5628 5627 5627 5627 5626 5627 5628 5628 5628 5629 5629 5629 5629 5629 5629 5629 5629 5630 5629 5628 5628 5629 5630 5631 5633 5633 5635 5637 5639 5642 5645 5648 5651 5655 5658 5661
5642 5639 5635 5631 5628 5625 5623 5620 5620 5619 5618 5618 5618 5618 5618 5617 5617 5616 5616 5616 5617 5617 5617 5617 5617 5617 5616 5616 5616 5616 5615 5615 5614 5614 5615 5615 5616 5618 5619 5620 5622 5625 5627 5630 5633 5636 5640 5643 5646
5635 5631 5628 5625 5620 5618 5615 5613 5613 5611 5610 5609 5609 5609 5608 5607 5607 5606 5606 5606 5605 5605 5605 5605 5605 5604 5604 5603 5602 5602 5601 5600 5600 5600 5600 5601 5602 5604 5605 5606 5609 5611 5613 5615 5618 5621 5625 5628 5632
5628 5624 5621 5617 5613 5609 5607 5606 5605 5603 5601 5601 5600 5599 5598 5598 5597 5596 5595 5595 5594 5593 5593 5593 5592 5591 5590 5590 5588 5587 5587 5586 5586 5586 5586 5587 5588 5589 5591 5593 5595 5597 5599 5601 5604 5607 5611 5614 5618
5622 5618 5613 5610 5607 5604 5600 5602 5598 5596 5593 5592 5591 5590 5588 5588 5587 5585 5584 5584 5583 5582 5580 5580 5579 5578 5577 5576 5575 5574 5573 5573 5572 5572 5573 5573 5574 5575 5577 5578 5580 5583 5585 5587 5590 5594 5596 5600 5604
5614 5611 5607 5604 5601 5597 5594 5596 5590 5588 5585 5584 5582 5581 5579 5578 5577 5575 5574 5573 5571 5570 5569 5568 5567 5565 5564 5563 5562 5560 5559 5558 5558 5558 5558 5559 5560 5561 5562 5564 5566 5568 5571 5573 5577 5581 5583 5587 5590